WOLF21 Weather Reports


time (UTC)temp
C
wind
direction
speed
KPH
gust
KPH
rain 1hr
cm
rain 24hr
cm
rain mn
cm
humidity
%
barometer
mb
20260505010041 20 192 4.8 12.9 0.00 0.00 0.00 56 1004.8
20260505004547 21 236 4.8 16.1 0.00 0.00 0.00 56 1004.7
20260505003042 21 261 6.4 17.7 0.00 0.00 0.00 58 1004.8
20260505001549 21 203 3.2 9.7 0.00 0.00 0.00 61 1004.9
20260505000058 21 214 4.8 9.7 0.00 0.00 0.00 60 1004.9
20260504234600 21 169 3.2 9.7 0.00 0.00 0.00 60 1005.1
20260504233042 21 242 3.2 11.3 0.00 0.00 0.00 59 1005.2
20260504231545 22 202 1.6 9.7 0.00 0.00 0.00 57 1005.3
20260504230045 22 228 6.4 16.1 0.00 0.00 0.00 56 1005.5
20260504224600 22 219 6.4 14.5 0.00 0.00 0.00 55 1005.8
20260504223045 22 238 6.4 17.7 0.00 0.00 0.00 55 1005.8
20260504221540 22 202 4.8 14.5 0.00 0.00 0.00 57 1005.9
20260504220037 22 217 6.4 19.3 0.00 0.00 0.00 56 1006.1
20260504214545 22 244 8.0 19.3 0.00 0.00 0.00 57 1006.2
20260504213101 22 289 6.4 20.9 0.00 0.00 0.00 60 1006.2
20260504211541 21 204 8.0 19.3 0.00 0.00 0.00 61 1006.5
20260504210037 20 207 6.4 17.7 0.00 0.00 0.00 64 1006.1
20260504204548 20 238 6.4 24.1 0.00 0.00 0.00 66 1007.2
20260504203059 19 207 6.4 19.3 0.00 0.00 0.00 69 1007.4
20260504201543 19 209 6.4 24.1 0.00 0.00 0.00 69 1007.0
20260504200046 18 225 6.4 16.1 0.00 0.00 0.00 68 1007.1
20260504194556 18 169 6.4 17.7 0.00 0.00 0.00 71 1007.4
20260504193045 19 229 11.3 22.5 0.00 0.00 0.00 67 1007.8
20260504191543 20 199 12.9 27.4 0.00 0.00 0.00 64 1008.1
20260504190043 20 285 6.4 24.1 0.00 0.00 0.00 63 1008.0
20260504184546 21 221 8.0 22.5 0.00 0.00 0.00 61 1007.8
20260504183041 21 249 11.3 27.4 0.00 0.00 0.00 61 1007.8
20260504181543 21 274 12.9 24.1 0.00 0.00 0.00 60 1007.4
20260504180036 21 200 6.4 25.7 0.00 0.00 0.00 61 1007.4
20260504174546 21 260 9.7 27.4 0.00 0.00 0.00 61 1007.3
20260504173048 21 207 11.3 27.4 0.00 0.00 0.00 60 1007.5
20260504171542 21 213 9.7 24.1 0.00 0.00 0.00 60 1007.6
20260504160123 18 203 6.4 16.1 0.00 0.00 0.00 66 1008.3
20260504090111 10 197 4.8 11.3 0.00 0.00 0.00 69 1010.0
20260504081541 10 197 4.8 12.9 0.00 0.00 0.00 68 1010.3
20260504044555 11 214 3.2 11.3 0.00 0.00 0.00 62 1012.1
20260504043045 11 197 4.8 14.5 0.00 0.00 0.00 62 1012.3
20260504041542 11 0 1.6 8.0 0.00 0.00 0.00 64 1012.3
20260504040042 11 211 0.0 4.8 0.00 0.00 0.00 65 1012.5
20260504034553 11 0 0.0 6.4 0.00 0.00 0.00 66 1012.6
20260504033053 11 0 0.0 4.8 0.00 0.00 0.00 66 1012.7
20260504031536 11 0 0.0 3.2 0.00 0.00 0.00 68 1012.8
20260504030045 10 0 0.0 0.0 0.00 0.00 0.00 71 1013.0
20260504024544 10 0 0.0 0.0 0.00 0.00 0.00 72 1013.2
20260504023036 10 0 0.0 0.0 0.00 0.00 0.00 72 1013.2
20260504021547 10 0 0.0 0.0 0.00 0.00 0.00 73 1013.2
20260504020045 10 0 0.0 0.0 0.00 0.00 0.00 73 1013.3
20260504014547 10 0 0.0 0.0 0.00 0.00 0.00 73 1013.2
20260504013046 10 0 0.0 3.2 0.00 0.00 0.00 74 1013.2
20260504011539 10 0 0.0 4.8 0.00 0.00 0.00 73 1013.3